Location: ???? ?????????
(44.1369°N, 135.3621°E)
Time: 07:46:18
(UTC+00:00)

Daily predictions for brighter satellites

Satellite Brightness Start Highest point End
(mag) Time Altitude Azimuth Time Altitude Azimuth Time Altitude Azimuth
USA 290 3.8 12:03:45 21° ENE 12:03:45 21° ENE 12:05:28 10° NE
ISS -1.3 12:03:55 10° NW 12:06:36 22° N 12:09:17 10° NE
BREEZE-M DEB 3.9 12:02:13 10° SW 12:06:43 49° SSE 12:13:01 10° ENE
Cosmos 540 Rocket 4.4 12:09:58 26° ESE 12:10:53 27° E 12:15:11 10° NE
Okean-O 3.0 12:08:15 19° S 12:11:15 58° W 12:15:34 10° NNW
USA 186 2.3 12:12:15 31° SW 12:13:05 42° W 12:15:43 10° NNW
Cosmos 2322 Rocket 2.6 12:08:29 10° NNW 12:14:01 51° ENE 12:16:52 27° ESE
Cosmos 2082 Rocket 4.1 12:11:02 10° WSW 12:16:08 33° NW 12:21:15 10° N
Cosmos 1437 Rocket 2.7 12:14:26 22° SSW 12:16:37 70° WNW 12:20:12 10° N
Cosmos 1758 Rocket 3.9 12:13:49 10° NNW 12:18:12 64° W 12:20:46 24° S
USA 245 4.3 12:23:40 25° S 12:27:14 81° WSW 12:32:52 10° NNW
DELTA 2 R/B (1) 3.8 12:23:02 10° W 12:28:24 50° S 12:30:16 35° SE
Cosmos 1825 Rocket 3.9 12:26:50 10° N 12:31:04 48° ENE 12:32:01 40° ESE
Cosmos 220 Rocket 4.4 12:33:19 13° SW 12:36:46 56° WNW 12:40:49 10° NNE
Cosmos 1953 Rocket 4.4 12:33:36 10° N 12:37:31 32° ENE 12:38:04 31° E
Cosmos 1464 Rocket 3.9 12:35:32 27° S 12:39:00 78° E 12:45:12 10° N
Ariane Rocket 2.9 12:38:42 37° S 12:40:46 84° WSW 12:45:53 10° NNW
Cosmos 2278 3.8 12:35:06 10° NNW 12:40:49 74° WSW 12:43:15 36° S
Cosmos 1602 Rocket 3.8 12:37:57 10° NNW 12:42:14 63° W 12:43:46 37° SSW
CZ-2C R/B 2.6 12:43:11 52° N 12:43:11 52° N 12:45:24 10° N
Helios 1A 4.3 12:41:31 10° NE 12:43:52 23° ENE 12:43:52 23° ENE
SL-16 R/B 2.7 12:39:27 10° NW 12:44:58 53° WSW 12:47:30 30° S
Meteor 1-5 Rocket 4.2 12:39:12 10° N 12:45:01 87° E 12:47:32 37° SSE
Cosmos 2058 Rocket 4.1 12:48:22 29° E 12:48:22 29° E 12:51:51 10° NNE
SPOT 3 Rocket 4.0 12:46:40 29° SSW 12:49:04 55° W 12:54:07 10° NNW
Cosmos 1805 3.2 12:48:37 10° NNW 12:51:49 55° W 12:51:50 55° W
Cosmos 2098 Rocket 3.5 12:50:24 29° SSW 12:52:42 63° W 12:56:54 10° N
Cosmos 1763 Rocket 3.4 12:51:43 39° S 12:53:42 75° ESE 12:58:59 10° NNE
Cosmos 1076 Rocket 3.4 12:52:46 10° N 12:57:00 66° E 12:57:22 62° ESE
CZ-4B R/B 3.7 12:56:33 30° WSW 12:57:01 32° W 13:00:09 10° NNW
Cosmos 1428 Rocket 4.4 12:50:55 10° N 12:57:10 85° E 12:59:33 40° SSE
Cosmos 1092 Rocket 4.3 12:54:20 10° N 13:00:20 50° ENE 13:02:11 38° ESE
Cosmos 990 Rocket 4.0 13:00:03 10° NNW 13:05:14 71° ENE 13:06:21 53° SE
CZ-4B R/B 4.1 13:04:02 33° SSW 13:05:37 45° W 13:10:16 10° NNW
ARIANE 5 R/B 4.5 13:08:31 18° ENE 13:09:11 19° ENE 13:12:16 10° NNE
Cosmos 1707 4.2 13:14:41 21° NNE 13:14:41 21° NNE 13:15:48 10° NNE
Cosmos 1606 Rocket 4.3 13:12:36 34° SW 13:13:59 47° WNW 13:18:10 10° N
Cosmos 2333 Rocket 3.3 13:09:17 10° NW 13:14:25 35° WSW 13:16:25 27° SW
Cosmos 2297 Rocket 4.1 13:17:29 15° E 13:17:29 15° E 13:19:43 10° ENE
Cosmos 2034 Rocket 4.0 13:15:08 37° SSW 13:17:53 82° W 13:24:17 10° N
Cosmos 1833 4.3 13:14:52 27° SW 13:18:06 73° WNW 13:23:45 10° NNE
Cosmos 1726 Rocket 3.9 13:21:24 48° WSW 13:21:55 52° WNW 13:25:53 10° N
Cosmos 2360 Rocket 2.7 13:20:15 10° NW 13:25:42 49° WSW 13:27:02 41° SSW
Cosmos 841 Rocket 4.3 13:27:44 34° E 13:27:44 34° E 13:31:55 10° NE
Meteor 2-6 Rocket 4.5 13:27:41 50° SE 13:28:34 55° E 13:34:22 10° NNE
Cosmos 2322 4.4 13:23:52 10° NNW 13:29:18 44° ENE 13:30:49 36° E
Cosmos 1503 Rocket 4.5 13:26:01 10° NNW 13:30:59 48° WSW 13:31:50 43° SW
Cosmos 1470 4.4 13:28:28 10° NNE 13:30:09 22° NE 13:30:09 22° NE
Helios 1B rocket 3.1 13:34:38 39° NNE 13:34:38 39° NNE 13:37:10 10° N
Cosmos 2279 Rocket 4.2 13:34:01 49° SE 13:35:07 55° E 13:41:12 10° NNE
IKONOS-2 4.5 13:32:02 10° N 13:36:03 75° NW 13:36:03 75° NW
Cosmos-2242 3.1 13:36:33 67° WNW 13:36:33 67° WNW 13:40:33 10° N
Cosmos 2219 Rocket 2.3 13:33:09 10° NNW 13:38:44 63° WSW 13:39:39 55° SSW
Cosmos 1634 Rocket 3.9 13:39:25 55° S 13:40:55 86° E 13:47:09 10° N
NOSS 3-4 (A) 4.4 13:36:34 10° NW 13:43:12 46° WSW 13:45:25 37° SSW
NOSS 3-4 (C) 4.4 13:37:11 10° NW 13:43:52 47° WSW 13:46:04 38° SSW
ISS -2.0 13:40:57 10° NW 13:43:36 32° N 13:43:36 32° N
Cosmos 1536 3.4 13:41:33 10° N 13:44:23 50° NNW 13:44:23 50° NNW
Cosmos 1354 Rocket 4.3 13:40:43 10° NNW 13:45:48 53° WSW 13:46:19 51° SW
Cosmos 372 Rocket 3.9 13:40:49 10° NNW 13:45:56 71° ENE 13:46:17 68° E
USA 234 3.6 13:47:22 10° ENE 13:53:01 42° ESE 13:53:01 42° ESE
Cosmos 2026 Rocket 4.5 13:51:05 10° NNW 13:57:16 53° W 13:59:02 41° SW
Cosmos 2322 Rocket 3.6 13:53:09 10° NW 13:57:41 25° WSW 13:58:40 24° WSW
Cosmos 2221 3.1 14:01:54 48° NE 14:01:54 48° NE 14:05:07 10° NNE
ARGOS Delta rocket 4.3 13:56:21 10° NNE 14:01:23 53° E 14:01:23 53° E
Aureole 1 Rocket 4.1 13:56:37 10° NNW 14:02:36 67° WSW 14:03:56 54° SSW
Cosmos 2266 Rocket 4.3 14:00:54 10° N 14:06:45 50° ENE 14:07:43 46° ESE
Cosmos 1975 3.9 14:05:31 10° N 14:07:57 39° N 14:07:57 39° N
Cosmos 1937 Rocket 3.6 14:04:33 10° NNW 14:09:40 62° ENE 14:09:53 61° E
Meteor 2-9 Rocket 4.0 14:06:30 10° N 14:11:57 83° E 14:12:18 77° SE
CZ-2C R/B 4.0 14:11:56 25° E 14:13:05 27° ENE 14:17:25 10° N
Cosmos 2237 Rocket 3.2 14:11:25 10° NNW 14:16:45 39° ENE 14:18:16 33° E
Cosmos 1271 Rocket 4.3 14:19:38 29° NNW 14:19:38 29° NNW 14:21:37 10° N
Cosmos 1980 4.4 14:15:35 10° NNW 14:21:02 45° ENE 14:22:16 39° E
CZ-2C R/B 3.9 14:20:02 10° N 14:24:14 64° NW 14:24:14 64° NW
RESURS DK-1 3.4 14:22:00 10° NNW 14:24:42 41° NW 14:24:42 41° NW
Cosmos 2227 Rocket 3.6 14:26:59 24° E 14:26:59 24° E 14:30:51 10° NE
COSMOS 2428 2.6 14:23:53 10° NNW 14:29:34 76° WSW 14:29:47 74° SW
Meteor 2-4 Rocket 4.4 14:30:05 39° E 14:30:05 39° E 14:35:06 10° NNE
Cosmos 44 4.3 14:25:17 10° NW 14:29:39 39° W 14:29:39 39° W
GP-B 3.7 14:26:53 10° N 14:30:25 50° NE 14:30:25 50° NE
Cosmos 2263 Rocket 4.0 14:35:43 18° E 14:35:43 18° E 14:38:47 10° ENE
Meteor 1-11 Rocket 3.5 14:31:55 10° N 14:37:36 88° E 14:37:53 82° SSE
Meteor 1-10 Rocket 4.2 14:39:19 72° SW 14:39:56 82° WNW 14:45:55 10° N
Lacrosse 4 Rocket 2.9 14:45:49 28° NE 14:45:49 28° NE 14:47:58 10° NE
Cosmos 1898 Rocket 4.0 14:39:07 10° NNW 14:43:43 48° W 14:43:43 48° W
CZ-2C R/B 3.3 14:38:31 10° NNE 14:44:17 65° ESE 14:44:34 64° ESE
ARIANE 5 R/B 3.5 14:45:53 43° WNW 14:45:53 43° WNW 14:49:25 10° NNW
ALOS 2 3.3 14:47:50 47° WNW 14:47:50 47° WNW 14:51:20 10° NNW
NOSS 0 Rocket 3.8 14:44:29 10° NNW 14:50:38 70° WSW 14:51:02 68° SW
Meteor 1-27 Rocket 3.6 14:53:57 78° SSE 14:54:21 86° E 15:00:08 10° NNE
Cosmos 2297 Rocket 2.1 14:59:14 71° WSW 14:59:43 76° WNW 15:05:24 10° NNE
Cosmos 1814 Rocket 4.4 15:01:29 51° E 15:01:29 51° E 15:06:09 10° NNE
Meteor 2-10 Rocket 4.1 15:00:33 10° N 15:06:00 53° ENE 15:06:50 48° ESE
Cosmos 1766 Rocket 4.0 15:01:43 10° N 15:05:11 57° N 15:05:11 57° N
ACS3 Solar Sail 2.6 15:02:28 10° NNE 15:07:57 36° E 15:08:44 35° ESE
BREEZE-M R/B 4.0 15:05:54 10° WNW 15:11:59 83° SSW 15:14:19 40° SE
Meteor 2-20 Rocket 4.1 15:13:56 74° SW 15:14:23 80° W 15:20:08 10° N
BlueWalker 3 3.9 15:17:21 23° NE 15:17:21 23° NE 15:18:49 10° NE
Cosmos 1238 Rocket 3.7 15:18:01 47° NNW 15:18:01 47° NNW 15:21:20 10° N
Cosmos 158 Rocket 3.9 15:21:25 88° SSW 15:21:30 90° N 15:26:51 10° NNE
Cosmos 1066 Rocket 4.0 15:25:56 81° SSE 15:26:09 84° E 15:31:41 10° NNE
Cosmos 1151 Rocket 4.2 15:31:39 33° ENE 15:31:39 33° ENE 15:35:09 10° NNE
USA 234 3.5 15:30:15 10° NE 15:36:43 64° NNW 15:40:20 28° WSW
Alouette 2 Rocket 4.1 15:35:46 10° NNW 15:39:03 53° WNW 15:39:03 53° WNW
Cosmos 1340 Rocket 4.3 15:36:25 10° N 15:39:37 30° ENE 15:39:37 30° ENE
Iridium 4 Rocket 3.6 15:39:55 73° SSW 15:40:28 82° W 15:46:19 10° N
Cosmos 1553 Rocket 4.0 15:42:22 57° SSE 15:43:40 74° E 15:50:05 10° NNE
SL-14 R/B 4.1 15:45:21 47° NNE 15:45:21 47° NNE 15:48:09 10° N
Cosmos 1500 Rocket 4.3 15:41:50 10° N 15:46:05 44° ENE 15:46:16 44° E
ATLAS 2AS CENTAUR R/B 4.3 15:41:14 10° NNW 15:47:13 32° NE 15:53:11 10° E
Meteor 1-18 Rocket 4.0 15:48:30 72° SW 15:49:05 82° W 15:54:47 10° N
SL-16 R/B 2.6 15:43:58 10° NNW 15:49:37 59° ENE 15:51:43 37° ESE
Landsat 5 4.2 15:46:15 10° N 15:49:32 46° NW 15:49:32 46° NW
Cosmos 2219 3.9 15:49:51 39° ESE 15:50:26 41° ESE 15:55:39 10° NE
CZ-2C R/B 3.2 15:53:23 41° W 15:53:23 41° W 15:58:02 10° NNW
CZ-4C R/B 4.4 15:50:54 10° N 15:53:06 36° N 15:53:06 36° N
SL-08 R/B 4.4 15:50:19 10° N 15:56:40 86° E 15:58:10 55° SSE
Cosmos 2237 Rocket 3.1 15:55:40 10° NW 16:00:02 32° W 16:00:02 32° W
In-Cosmos 22 4.0 16:00:39 69° SSW 16:01:21 83° W 16:07:02 10° N
Okean 3 Rocket 3.8 15:57:34 10° NNW 16:01:39 65° WNW 16:01:39 65° WNW
Cosmos 1842 Rocket 4.5 16:03:34 38° WNW 16:03:34 38° WNW 16:07:22 10° N
Sich 1 3.5 15:59:34 10° NNW 16:02:53 48° NW 16:02:53 48° NW
SeaSat 1 2.3 16:04:32 76° SW 16:04:38 77° WSW 16:09:33 10° NNW
Cosmos 2227 Rocket 2.6 16:08:45 44° W 16:10:00 52° WNW 16:15:33 10° NNE
BREEZE-M DEB (TANK) 3.4 16:07:49 10° WNW 16:12:52 69° SSW 16:20:03 10° SE
Cosmos 1805 Rocket 3.5 16:10:43 10° N 16:14:47 77° NW 16:14:47 77° NW
Cosmos 1745 Rocket 4.1 16:11:01 10° N 16:17:10 71° E 16:19:32 39° SSE
Cosmos 2263 Rocket 2.2 16:17:21 55° WSW 16:18:26 68° WNW 16:24:01 10° NNE
Cosmos 1743 Rocket 3.6 16:15:54 10° N 16:20:11 65° E 16:20:30 62° ESE
Lacrosse 4 Rocket 3.4 16:21:11 17° WNW 16:22:06 18° NW 16:24:58 10° N
Cosmos 2084 3.4 16:19:35 10° NW 16:23:43 73° NE 16:23:53 71° ENE
CENTAUR R/B 3.2 16:22:59 30° SE 16:24:13 34° ESE 16:29:54 10° NE
Cosmos 1570 Rocket 4.1 16:26:05 56° SSE 16:27:03 70° ESE 16:32:21 10° NNE
Cosmos 1125 Rocket 3.4 16:26:10 10° NNW 16:31:26 69° WSW 16:32:11 60° SSW
Cosmos 1943 3.9 16:27:47 10° NNW 16:33:16 50° ENE 16:38:41 10° SE
Cosmos 1408 Rocket 4.1 16:34:12 10° NNW 16:37:54 43° WNW 16:37:54 43° WNW
Cosmos 1417 Rocket 4.4 16:36:44 47° SSW 16:38:38 79° W 16:44:49 10° N
Resurs 1-4 Rocket 4.2 16:35:31 10° NE 16:39:11 19° E 16:42:49 10° SE
Nimbus 7 Rocket 4.4 16:33:33 10° NNE 16:39:37 84° ESE 16:41:42 44° S
Cosmos 773 Rocket 3.9 16:38:54 55° S 16:39:59 78° ESE 16:45:07 10° NNE
Cosmos 836 Rocket 4.4 16:40:20 56° SSW 16:41:27 88° WNW 16:46:40 10° NNE
PSLV R/B 4.4 16:38:08 10° N 16:41:43 44° WNW 16:41:43 44° WNW
Cosmos 1328 Rocket 4.0 16:42:22 44° SE 16:43:19 55° E 16:47:38 10° NNE
Cosmos 2297 Rocket 4.5 16:41:32 10° WNW 16:44:45 15° NW 16:47:58 10° N
Cosmos 1844 Rocket 3.4 16:47:08 31° SSE 16:49:14 44° ESE 16:54:31 10° NE
ACS3 Solar Sail 2.5 16:44:48 10° N 16:50:15 38° WNW 16:52:13 30° WSW
Cosmos 2082 3.6 16:51:21 45° SW 16:53:07 77° WNW 16:58:46 10° NNE
BlueWalker 3 4.1 16:50:56 13° WNW 16:53:11 22° NNW 16:56:00 10° NE
Cosmos 2150 Rocket 4.4 16:49:04 10° NNW 16:54:29 64° ENE 16:59:10 14° SSE
MSX 3.8 16:54:20 10° NNE 17:00:08 80° WNW 17:02:27 38° SSW
USA 281 4.3 16:56:59 10° SE 17:03:08 45° NE 17:09:20 10° NNW
Cosmos 2208 Rocket 4.0 17:03:13 43° SSW 17:05:00 78° WNW 17:10:18 10° NNE
ADEOS Rocket 3.4 17:00:20 10° NNE 17:08:02 88° ESE 17:12:12 28° SSW
IDEFIX/ARIANE 42P 2.6 17:02:52 10° N 17:08:04 67° WNW 17:09:57 39° SW
S3M 4.2 17:06:54 35° SW 17:09:17 54° WNW 17:15:18 10° N
Atlas Centaur 2 3.6 17:09:49 27° S 17:10:31 27° S 17:16:52 10° ESE
ALOS 3.9 17:07:32 10° NE 17:11:27 28° E 17:14:44 13° SSE
H-2A R/B 3.8 17:07:00 10° NE 17:11:36 28° E 17:16:11 10° SSE
Aureole 2 4.1 17:12:36 78° SW 17:12:48 87° WNW 17:16:09 10° NNE
Meteor 1-21 4.3 17:10:18 29° S 17:13:15 74° E 17:18:51 10° NNE
Cosmos 2285 Rocket 4.3 17:09:42 10° NNW 17:16:00 68° ENE 17:22:17 10° SSE
EXPRESS MD2 4.5 17:16:01 17° NNW 17:16:59 22° N 17:19:05 10° ENE
FENGYUN 3A 3.6 17:13:47 10° N 17:19:11 72° WNW 17:21:38 33° SSW
NOSS 2-2 (E) 3.2 17:19:12 48° SSE 17:19:40 53° SE 17:22:42 10° NE
Cosmos 1633 Rocket 2.9 17:16:14 10° NNW 17:20:32 72° W 17:22:06 38° S
NOSS 7 (H) 4.4 17:17:47 10° NNW 17:20:43 68° NE 17:23:58 10° SE
Okean 2 3.6 17:19:33 32° SSE 17:21:03 57° E 17:24:49 10° NNE
Cosmos 2315 Rocket 4.2 17:18:20 31° SW 17:21:16 57° WNW 17:27:31 10° N
Envisat 3.6 17:17:03 10° NNE 17:22:00 52° E 17:25:22 20° S
CZ-2D R/B 3.2 17:17:32 10° NNE 17:22:39 41° E 17:27:05 13° SSE
Cosmos 1470 Rocket 3.6 17:18:36 10° N 17:22:59 79° E 17:25:40 23° SSE
NOSS 2-2 (C) 3.9 17:25:33 29° WNW 17:26:06 31° NW 17:28:50 10° NNE
DMSP B5D2-2 4.3 17:23:12 10° SSE 17:28:22 72° ENE 17:33:35 10° N
Cosmos 1900 4.2 17:25:11 10° NNW 17:30:04 87° NE 17:34:57 10° SSE
Cosmos 1953 2.8 17:26:49 10° NNW 17:30:08 34° W 17:30:11 34° W
Cosmos 1844 3.7 17:27:18 29° SSW 17:30:22 85° ESE 17:36:10 10° NNE
BREEZE-M DEB (TANK) 3.6 17:22:54 10° W 17:30:52 46° NNW 17:33:59 10° ENE
MOZ.5/SAFIR/RUBIN 5/SL-8 3.7 17:27:46 19° SSE 17:31:06 90° W 17:35:42 10° NNW
SL-16 R/B 3.4 17:29:00 10° NW 17:33:13 22° W 17:33:31 22° WSW
NPP 3.9 17:28:14 10° N 17:33:28 54° WNW 17:36:08 28° SW
Cosmos 2219 4.3 17:31:44 21° WSW 17:34:37 33° NW 17:39:41 10° N
Tiangong -0.7 17:39:05 24° SSE 17:39:05 24° SSE 17:40:46 10° SE
ATLAS 2AS CENTAUR R/B 2.6 17:31:54 10° NW 17:38:39 71° WSW 17:45:25 10° SSE
NOAA 11 4.2 17:36:12 10° N 17:41:39 71° WNW 17:45:01 24° SSW
Cosmos 2344 4.3 17:37:28 14° S 17:44:04 46° ESE 17:50:51 10° NE
CZ-4C R/B 3.5 17:38:41 10° NNW 17:45:38 65° NE 17:54:16 10° SE
Cosmos 1295 Rocket 4.4 17:39:42 10° N 17:45:58 85° W 17:52:06 10° S
Geosat FO 3.7 17:46:09 10° NNE 17:48:49 85° ESE 17:49:31 45° SSW
Cosmos 1867 3.5 17:44:52 10° NW 17:50:18 68° WSW 17:55:42 10° SSE
IRIDIUM 106 4.3 17:53:34 10° N 17:58:50 89° ESE 18:04:03 10° S
NOSS 2-2 (D) 3.9 17:58:30 21° W 18:00:00 32° NW 18:02:47 10° NNE
Cosmos 1869 Rocket 4.0 17:57:20 10° N 18:01:40 63° E 18:05:55 10° SSE
Cosmos 2263 Rocket 4.3 18:00:40 10° WNW 18:03:25 14° NW 18:06:11 10° NNW
ADEOS II 2.3 17:59:47 10° NNE 18:05:01 70° ESE 18:10:13 10° S
Cosmos 1538 Rocket 4.2 18:01:27 13° S 18:05:55 68° ESE 18:11:03 10° NNE
H-2A R/B 2.0 18:10:47 10° S 18:14:20 73° WSW 18:17:56 10° NNW
CENTAUR R/B 3.1 18:10:03 15° WSW 18:14:27 47° NW 18:21:13 10° NNE
Cosmos 1515 Rocket 4.3 18:12:34 19° SW 18:15:20 38° WNW 18:19:29 10° N
METEOR-M 4.5 18:10:41 10° NNE 18:16:00 66° ESE 18:21:17 10° S
Cosmos 1943 4.2 18:12:27 10° NW 18:16:54 25° WSW 18:20:33 13° SSW
Cosmos 1441 Rocket 3.9 18:14:43 10° S 18:17:54 44° E 18:21:06 10° NNE
Resurs 1-4 Rocket 2.3 18:14:09 10° N 18:19:20 59° WNW 18:23:57 13° SSW
Cosmos 2154 Rocket 4.1 18:18:31 10° NNW 18:24:37 57° W 18:30:39 10° S
Cosmos 2074 Rocket 4.3 18:19:43 10° NNW 18:25:44 50° W 18:31:41 10° SSW
BlueWalker 3 4.3 18:28:47 10° NW 18:31:30 20° N 18:34:13 10° ENE
Cosmos 1833 Rocket 3.8 18:27:21 10° NNW 18:32:51 50° ENE 18:38:18 10° SE
Cosmos 2184 Rocket 4.3 18:27:09 10° NNW 18:32:57 45° W 18:38:45 10° SSW
Cosmos 1844 Rocket 3.8 18:28:46 12° WSW 18:33:15 30° NW 18:38:10 10° N
Okean 3 4.0 18:30:05 13° SW 18:33:15 37° WNW 18:36:59 10° N
Okean 1-7 3.9 18:29:38 10° SSE 18:33:34 47° E 18:37:32 10° NNE
BREEZE-M DEB (TANK) 4.2 18:21:36 10° W 18:36:47 58° N 18:40:29 10° E
Cosmos 1603 4.4 18:39:43 10° NW 18:44:50 34° WSW 18:49:54 10° SSW
Cosmos 44 Rocket 3.4 18:40:08 10° NW 18:45:20 77° WSW 18:50:22 10° SSE
USA 281 3.7 18:41:39 10° S 18:47:41 38° WSW 18:53:45 10° NW
Cosmos 1328 3.4 18:44:47 10° SSW 18:48:18 76° W 18:51:51 10° N
ALOS 3.2 18:44:20 10° N 18:48:21 31° WNW 18:52:21 10° SW
Cosmos 1733 Rocket 3.2 18:44:06 10° N 18:48:28 78° E 18:52:45 10° SSE
H-2A R/B 2.7 18:45:55 10° N 18:50:59 42° WNW 18:56:03 10° SW
Cosmos 1943 Rocket 3.8 18:48:45 10° SSE 18:53:45 33° ESE 18:58:46 10° NE
Atlas Centaur 2 4.0 18:52:28 10° WSW 18:58:23 25° S 19:04:40 10° SE
Envisat 4.5 18:56:47 10° NNW 19:00:34 22° WNW 19:04:21 10° WSW
